Location: Peterborough
(44.3091°N, 78.3197°W)
Time: 06:24:23
(UTC-04:00)

A-11 Canister half - Visible Passes

Search period start: 12 September 2024 00:00
Search period end: 22 September 2024 00:00
Orbit: 1515 x 1684 km, 47.2° (Epoch: 11 September)

Date Brightness Start Highest point End Pass type
(mag) Time Alt. Az. Time Alt. Az. Time Alt. Az.
12 Sep 10.7 02:04:30 10° WNW 02:25:36 - SE 02:05:49 15° WNW visible
12 Sep 10.5 04:23:56 14° S 04:23:56 14° S 04:25:06 10° S visible
12 Sep 8.9 21:30:59 10° WSW 21:40:21 89° SSE 21:47:25 20° ENE visible
12 Sep 8.9 23:36:21 10° W 23:45:35 75° N 23:45:35 75° N visible
13 Sep 10.5 01:41:31 10° WNW 01:43:44 20° WNW 01:43:44 20° WNW visible
13 Sep 8.9 21:07:59 10° WSW 21:17:22 87° SSE 21:25:20 15° ENE visible
13 Sep 8.9 23:13:20 10° W 23:22:38 75° N 23:23:30 70° NE visible
14 Sep 10.3 01:18:32 10° WNW 01:21:40 25° WNW 01:21:40 25° WNW visible
14 Sep 8.9 20:45:00 10° WSW 20:54:23 84° SSE 21:03:15 12° ENE visible
14 Sep 8.9 22:50:19 10° W 22:59:37 75° N 23:01:25 60° ENE visible
15 Sep 10.1 00:55:32 10° WNW 00:59:34 30° WNW 00:59:34 30° WNW visible
15 Sep 8.9 20:22:00 10° WSW 20:31:25 82° SSE 20:40:41 10° ENE visible
15 Sep 8.9 22:27:17 10° W 22:36:36 75° N 22:39:20 51° ENE visible
16 Sep 9.8 00:32:33 10° WNW 00:37:29 37° WNW 00:37:29 37° WNW visible
16 Sep 9.0 19:59:00 10° WSW 20:08:26 79° SSE 20:17:42 10° ENE visible
16 Sep 9.0 22:04:15 10° W 22:13:36 75° N 22:17:15 42° ENE visible
17 Sep 9.6 00:09:33 10° WNW 00:15:25 45° WNW 00:15:25 45° WNW visible
17 Sep 9.0 19:36:02 10° WSW 19:45:28 77° SSE 19:54:43 10° ENE visible
17 Sep 9.0 21:41:13 10° W 21:50:35 75° N 21:55:11 34° ENE visible
17 Sep 9.3 23:46:33 10° WNW 23:53:21 55° WNW 23:53:21 55° WNW visible
18 Sep 9.0 21:18:11 10° W 21:27:34 75° N 21:33:07 28° ENE visible
18 Sep 9.0 23:23:34 10° WNW 23:31:17 67° WNW 23:31:17 67° WNW visible
19 Sep 10.9 01:28:42 10° WNW 01:29:27 13° WNW 01:29:27 13° WNW visible
19 Sep 9.0 20:55:09 10° W 21:04:33 76° N 21:11:04 22° ENE visible
19 Sep 8.8 23:00:33 10° WNW 23:09:14 80° WNW 23:09:14 80° WNW visible
20 Sep 10.7 01:05:41 10° WNW 01:07:24 17° WNW 01:07:24 17° WNW visible
20 Sep 9.1 20:32:06 10° W 20:41:32 76° N 20:49:02 18° ENE visible
20 Sep 8.7 22:37:33 10° WNW 22:46:54 86° NNE 22:47:12 84° ENE visible
21 Sep 10.5 00:42:40 10° WNW 00:45:21 21° W 00:45:21 21° W visible
21 Sep 9.1 20:09:03 10° W 20:18:32 77° N 20:27:00 13° ENE visible
21 Sep 8.8 22:14:32 10° WNW 22:23:54 84° NNE 22:25:10 70° E visible
